325  
ASUS42 KCHS 201827  
RWRCHS  
 
REGIONAL WEATHER ROUNDUP  
NATIONAL WEATHER SERVICE CHARLESTON SC  
200 PM EDT SAT APR 20 2019  
 
NOTE: "FAIR" INDICATES FEW OR NO CLOUDS BELOW 12,000 FEET WITH NO  
SIGNIFICANT WEATHER AND/OR S TO VISIBILITY
.  
 
NOT ALL STATIONS ARE QUALITY CONTROLLED. USE DATA WITH CAUTION,  
ESPECIALLY DEWPOINT OBSERVATIONS.  
 
SCZ027-030-031-034>040-042>050-201900-   
..SOUTHEAST SOUTH CAROLINA
 
 
 
CITY SKY/WX TMP DP RH WIND PRES REMARKS
 
N CHARLESTON PTSUNNY 64 41 42 SW15G29 29.82S  
6HR MIN TEMP: 54; 6HR MAX TEMP: 66;  
 
WATERFRONT PRK N/A 62 48 60 SW13G24 29.68S  
MOUNT PLEASANT FAIR 64 45 48 S16G26 29.82F  
JOHNS ISLAND MOCLDY 64 45 48 SW15G24 29.83S  
PINOPOLIS N/A 61 48 63 SW15G25 29.72S  
MONCKS CORNER MOCLDY 64 37 36 SW14 29.81S  
SUMMERVILLE MOCLDY 63 41 45 SW13G20 29.82S  
BEAUFORT MCAS FAIR 66 43 43 W21G29 29.84S  
6HR MIN TEMP: 55; 6HR MAX TEMP: 66;  
 
BEAUFORT ARPT NOT AVBL  
HILTON HEAD IS MOSUNNY 63 39 42 W21G28 29.86S  
WALTERBORO CLOUDY 59 41 51 W14G22 29.84S  
ALLENDALE MOCLDY 55 41 58 VRB6G16 29.84S  
   
..SOUTHERN MIDLANDS AND PEE DEE
 
 
 
CITY SKY/WX TMP DP RH WIND PRES REMARKS
 
GEORGETOWN MOCLDY 66 43 42 S22G29 29.82S  
KINGSTREE CLOUDY 59 41 51 SW9G20 29.80S  
ORANGEBURG LGT RAIN 55 41 59 SW23G35 29.82R  
6HR MIN TEMP: 50; 6HR MAX TEMP: 60; 6HR PCP: TRACE;  
 
BARNWELL MOCLDY 55 45 67 S9G16 29.83F  
AIKEN CLOUDY 50 43 76 S7G16 29.83S  
MANNING MOCLDY 59 41 51 W14G22 29.80S  
COLUMBIA LGT RAIN 53 45 74 SW12 29.79R  
6HR MIN TEMP: 50; 6HR MAX TEMP: 59; 6HR PCP: 0.01;  
 
SUMTER LGT RAIN 57 43 58 SW21 29.78S  
6HR MIN TEMP: 52; 6HR MAX TEMP: 59; 6HR PCP: TRACE;  
 
FLORENCE PTSUNNY 61 42 49 SW14G25 29.78F  
6HR MIN TEMP: 54; 6HR MAX TEMP: 63;  
 
MYRTLE BEACH FAIR 64 50 60 S23G29 29.81F  
N MYRTLE BEACH FAIR 65 49 56 S24G35 29.81F  
6HR MIN TEMP: 56; 6HR MAX TEMP: 65; 6HR PCP: TRACE;  
 

 
 
GAZ063-065-086>088-099>101-113>116-118-119-134>141-150-201900-   
..SOUTHEAST GEORGIA
 
 
 
CITY SKY/WX TMP DP RH WIND PRES REMARKS
 
SAVANNAH ARPT PTSUNNY 65 41 41 W18G26 29.86S  
6HR MIN TEMP: 52; 6HR MAX TEMP: 66;  
 
HUNTER AAF FAIR 63 40 43 W14G20 29.84S  
6HR MIN TEMP: 53; 6HR MAX TEMP: 66;  
 
FORT STEWART NOT AVBL  
STATESBORO CLOUDY 58 39 48 W15G22 29.85S  
SYLVANIA CLOUDY 59 42 53 W10G20 29.85F  
CLAXTON MOCLDY 63 38 39 SW12G29 29.85S  
MILLEN CLOUDY 55 43 62 SW8G18 29.85S  
   
..CSRA, CENTRAL AND FAR SOUTHEAST GEORGIA
 
 
 
CITY SKY/WX TMP DP RH WIND PRES REMARKS
 
THOMSON CLOUDY 53 47 82 NW7 29.85F  
AUGUSTA-BUSH CLOUDY 56 45 66 SW17G25 29.82S  
6HR MIN TEMP: 50; 6HR MAX TEMP: 58; 6HR PCP: TRACE;  
 
AUGUSTA-DANIEL CLOUDY 54 42 64 SW14G24 29.81S  
SWAINSBORO CLOUDY 55 43 62 W9 29.86S  
VIDALIA CLOUDY 63 36 36 W16G22 29.85F  
EASTMAN CLOUDY 60 39 46 W10G20 29.87F  
HAZLEHURST MOCLDY 65 36 33 SW14G23 29.85F  
ALMA LGT RAIN 65 39 38 W14G24 29.87F  
6HR MIN TEMP: 50; 6HR MAX TEMP: 67; 6HR PCP: TRACE;  
 
WAYCROSS FAIR 67 28 23 W18G26 29.88F  
JESUP NOT AVBL  
BAXLEY PTSUNNY 63 37 39 W16G23 29.86F  
BRUNSWICK PTSUNNY 66 40 38 W21G30 29.88F  
SAINT SIMONS PTSUNNY 66 40 38 W17G30 29.89F  
6HR MIN TEMP: 57; 6HR MAX TEMP: 67;  
 

 
 
SCZ027-028-034-036>038-045-046-048>050-GAZ119-141-201900-   
..LAKE AND SUPPLEMENTAL COASTAL OBSERVATIONS
 
 
 
STATION/POSITION TIME TEMP WIND PRES WAVE SWELL
 
AIR SEA DIR/SP/G HT/PER HT/PER/DIR  
(UTC) (F) (DEG/KT/KT) (MB) (FT/S) (FT/S/D)  
WINYAH BAY 1745 63 210/ 22 1009.0S  
LAKE MURRAY 1720 52 230/ 13/ 21 1007.8S  
ACE BASIN NERRS 1730 64 230/ 6 1010.0S  
FORT PULASKI 1800 61 68 280/ 16/ 21 1011.3  
SAPELO ISLAND 1800 64 240/ 20 1012.0  
 

 
 
ANZ835-935-AMZ111-154-330-350-352-354-370-450-454-472-201900-   
..C-MAN AND BUOY OBSERVATIONS
 
 
 
STATION/POSITION TIME TEMP WIND PRES WAVE SWELL
 
AIR SEA DIR/SP/G HT/PER HT/PER/DIR  
(UTC) (F) (DEG/KT/KT) (MB) (FT/S) (FT/S/D)  
BUOY 41004 1810 65 72 210/ 27/ 33 1011.0  
BUOY 41008 1750 62 67 250/ 19/ 23 1011.8F 4/ 5 2/110/ 8  
FOLLY BEACH CMAN 1800 62 220/ 22/ 29 1010.7S  
CAPERS NEARSHORE 1808 61 68 230/ 23/ 33 1010.0F  
FRIPP NEARSHORE NOT AVBL  
 
 
STATION/POSITION TIME TEMP WIND PRES WAVE SWELL
 
AIR SEA DIR/SP/G HT/PER HT/PER/DIR  
(UTC) (F) (DEG/KT/KT) (MB) (FT/S) (FT/S/D)  
5E ST. MARYS GA 1800 67 N/A 3/ 4  
FRYING PAN BUOY 1810 65 210/ 17/ 21 1011.1  
BUOY 41025 NOT AVBL  
CAPE LOOKOUT NC 1800 65 240/ 12/ 15 1010.8F  
BUOY 41002 1810 240/ 19/ 27 1014.4  
BUOY 41010 1810 72 78 250/ 19/ 25 1014.9  
ST AUGUSTINE FL 1800 67 72 270/ 14/ 20 1014.2F  
 

 
 
 
CLICK HERE TO GO TO PREVIOUS BULLETINS.

The Nexlab SC Page
The Nexlab GA Page Main Text Page